When you browse on this site, cookies collect data to enhance your experience and personalize the content and advertising you see.
Visit our Privacy Policy to learn more. By continuing to use the site, you agree to this use of cookies and data.
  • In Schweiz
  • Länderverzeichnis
  • Für 7 Tage
  • Wassertemperatur
  • Satellitenkarten
  • Wetterkarte
  • Widgets
  • user-avatar
    Anmelden

    Stündliche Wetter Tolna

    Heute, 17 Juli, Mittwoch

    Zeit Temperatur Niederschläge Wind Luftdruck Luftfeuchtigkeit
    00:00 +19°C° 0 mm 3 m/S 751 mmHg 59%
    01:00 +19°C° 0 mm 3 m/S 751 mmHg 60%
    02:00 +18°C° 0 mm 3 m/S 751 mmHg 65%
    03:00 +17°C° 0 mm 3 m/S 751 mmHg 70%
    04:00 +16°C° 0 mm 3 m/S 751 mmHg 74%
    05:00 +17°C° 0 mm 4 m/S 751 mmHg 72%
    06:00 +18°C° 0 mm 4 m/S 751 mmHg 69%
    07:00 +19°C° 0 mm 5 m/S 751 mmHg 67%
    08:00 +21°C° 0 mm 5 m/S 752 mmHg 63%
    09:00 +22°C° 0 mm 5 m/S 752 mmHg 59%
    10:00 +25°C° 0 mm 5 m/S 752 mmHg 56%
    11:00 +25°C° 0 mm 5 m/S 752 mmHg 55%
    12:00 +26°C° 0 mm 4 m/S 751 mmHg 54%
    13:00 +27°C° 0 mm 4 m/S 751 mmHg 53%
    14:00 +27°C° 0 mm 4 m/S 751 mmHg 53%
    15:00 +27°C° 0 mm 4 m/S 751 mmHg 53%
    16:00 +27°C° 0 mm 3 m/S 750 mmHg 54%
    17:00 +25°C° 0 mm 2 m/S 750 mmHg 59%
    18:00 +24°C° 0 mm 2 m/S 750 mmHg 64%
    19:00 +23°C° 0 mm 1 m/S 750 mmHg 69%
    20:00 +22°C° 0 mm 1 m/S 750 mmHg 70%
    21:00 +19°C° 0 mm 0 m/S 750 mmHg 72%
    22:00 +18°C° 0 mm 0 m/S 750 mmHg 73%
    23:00 +17°C° 0 mm 0 m/S 750 mmHg 74%

    Morgen, 18 Juli, Donnerstag

    Zeit Temperatur Niederschläge Wind Luftdruck Luftfeuchtigkeit
    00:00 +17°C° 0 mm 0 m/S 750 mmHg 76%
    01:00 +19°C° 0 mm 1 m/S 750 mmHg 77%
    02:00 +17°C° 0 mm 0 m/S 750 mmHg 79%
    03:00 +16°C° 0 mm 0 m/S 750 mmHg 80%
    04:00 +16°C° 0 mm 0 m/S 750 mmHg 81%
    05:00 +17°C° 0.3 mm 0 m/S 750 mmHg 79%
    06:00 +18°C° 0.3 mm 0 m/S 750 mmHg 78%
    07:00 +22°C° 0.3 mm 1 m/S 751 mmHg 76%
    08:00 +23°C° 0.4 mm 1 m/S 751 mmHg 73%
    09:00 +22°C° 0.4 mm 0 m/S 751 mmHg 71%
    10:00 +23°C° 0.4 mm 0 m/S 751 mmHg 68%
    11:00 +25°C° 0.6 mm 1 m/S 751 mmHg 68%
    12:00 +25°C° 0.6 mm 1 m/S 751 mmHg 67%
    13:00 +26°C° 0.6 mm 1 m/S 750 mmHg 66%
    14:00 +26°C° 0.2 mm 2 m/S 750 mmHg 63%
    15:00 +27°C° 0.2 mm 2 m/S 750 mmHg 61%
    16:00 +27°C° 0.2 mm 2 m/S 750 mmHg 58%
    17:00 +26°C° 0 mm 1 m/S 750 mmHg 63%
    18:00 +25°C° 0 mm 1 m/S 750 mmHg 68%
    19:00 +22°C° 0 mm 0 m/S 750 mmHg 72%
    20:00 +23°C° 0.3 mm 1 m/S 751 mmHg 76%
    21:00 +22°C° 0.3 mm 1 m/S 751 mmHg 79%
    22:00 +20°C° 0.3 mm 2 m/S 751 mmHg 83%
    23:00 +20°C° 0.2 mm 1 m/S 752 mmHg 85%

    übermorgen, 19 Juli, Freitag

    Zeit Temperatur Niederschläge Wind Luftdruck Luftfeuchtigkeit
    00:00 +20°C° 0.2 mm 1 m/S 752 mmHg 88%
    01:00 +19°C° 0.2 mm 1 m/S 752 mmHg 90%
    02:00 +19°C° 0 mm 1 m/S 752 mmHg 90%
    03:00 +19°C° 0 mm 1 m/S 752 mmHg 90%
    04:00 +19°C° 0 mm 1 m/S 752 mmHg 90%
    05:00 +20°C° 0.2 mm 1 m/S 752 mmHg 87%
    06:00 +20°C° 0.2 mm 1 m/S 752 mmHg 85%
    07:00 +21°C° 0.2 mm 1 m/S 753 mmHg 82%
    08:00 +23°C° 0.1 mm 1 m/S 753 mmHg 77%
    09:00 +24°C° 0.1 mm 1 m/S 753 mmHg 71%
    10:00 +26°C° 0.1 mm 2 m/S 753 mmHg 66%
    11:00 +27°C° 0.1 mm 2 m/S 753 mmHg 63%
    12:00 +27°C° 0.1 mm 2 m/S 752 mmHg 60%
    13:00 +28°C° 0.1 mm 2 m/S 752 mmHg 57%
    14:00 +28°C° 0 mm 1 m/S 752 mmHg 56%
    15:00 +29°C° 0 mm 1 m/S 752 mmHg 55%
    16:00 +29°C° 0 mm 1 m/S 752 mmHg 54%
    17:00 +28°C° 0 mm 1 m/S 752 mmHg 59%
    18:00 +26°C° 0 mm 1 m/S 752 mmHg 64%
    19:00 +25°C° 0 mm 1 m/S 752 mmHg 69%
    20:00 +24°C° 0 mm 1 m/S 752 mmHg 72%
    21:00 +23°C° 0 mm 1 m/S 752 mmHg 75%
    22:00 +22°C° 0 mm 1 m/S 753 mmHg 77%
    23:00 +22°C° 0 mm 1 m/S 753 mmHg 80%

    20 Juli, Samstag

    Zeit Temperatur Niederschläge Wind Luftdruck Luftfeuchtigkeit
    00:00 +21°C° 0 mm 1 m/S 753 mmHg 82%
    01:00 +21°C° 0 mm 1 m/S 753 mmHg 84%
    02:00 +21°C° 0 mm 1 m/S 753 mmHg 85%
    03:00 +20°C° 0 mm 1 m/S 753 mmHg 86%
    04:00 +18°C° 0 mm 0 m/S 753 mmHg 87%
    05:00 +21°C° 0 mm 1 m/S 753 mmHg 83%
    06:00 +23°C° 0 mm 1 m/S 753 mmHg 78%
    07:00 +24°C° 0 mm 1 m/S 753 mmHg 74%
    08:00 +26°C° 0 mm 1 m/S 754 mmHg 69%
    09:00 +27°C° 0 mm 1 m/S 754 mmHg 63%
    10:00 +29°C° 0 mm 2 m/S 754 mmHg 58%
    11:00 +30°C° 0 mm 2 m/S 754 mmHg 55%
    12:00 +30°C° 0 mm 2 m/S 754 mmHg 51%
    13:00 +31°C° 0 mm 2 m/S 753 mmHg 48%
    14:00 +31°C° 0 mm 2 m/S 753 mmHg 49%
    15:00 +31°C° 0 mm 2 m/S 753 mmHg 50%
    16:00 +31°C° 0 mm 2 m/S 753 mmHg 51%
    17:00 +30°C° 0 mm 2 m/S 753 mmHg 57%
    18:00 +28°C° 0 mm 2 m/S 753 mmHg 63%
    19:00 +27°C° 0 mm 1 m/S 753 mmHg 69%
    20:00 +26°C° 0 mm 2 m/S 753 mmHg 70%
    21:00 +25°C° 0 mm 2 m/S 753 mmHg 71%
    22:00 +24°C° 0 mm 2 m/S 753 mmHg 72%
    23:00 +24°C° 0 mm 2 m/S 753 mmHg 73%

    21 Juli, Sonntag

    Zeit Temperatur Niederschläge Wind Luftdruck Luftfeuchtigkeit
    00:00 +23°C° 0 mm 2 m/S 753 mmHg 74%
    01:00 +23°C° 0 mm 2 m/S 753 mmHg 75%
    02:00 +23°C° 0 mm 2 m/S 753 mmHg 76%
    03:00 +21°C° 0 mm 2 m/S 753 mmHg 76%
    04:00 +21°C° 0 mm 2 m/S 753 mmHg 77%
    05:00 +23°C° 0 mm 2 m/S 754 mmHg 75%
    06:00 +24°C° 0 mm 2 m/S 754 mmHg 73%
    07:00 +26°C° 0 mm 2 m/S 754 mmHg 71%
    08:00 +27°C° 0 mm 2 m/S 754 mmHg 65%
    09:00 +28°C° 0 mm 2 m/S 755 mmHg 59%
    10:00 +30°C° 0 mm 3 m/S 755 mmHg 54%
    11:00 +30°C° 0 mm 3 m/S 755 mmHg 53%
    12:00 +31°C° 0 mm 3 m/S 754 mmHg 52%
    13:00 +32°C° 0 mm 4 m/S 754 mmHg 51%
    14:00 +31°C° 0 mm 3 m/S 754 mmHg 50%
    15:00 +31°C° 0 mm 3 m/S 754 mmHg 50%
    16:00 +31°C° 0 mm 3 m/S 754 mmHg 50%
    17:00 +30°C° 0 mm 2 m/S 754 mmHg 55%
    18:00 +28°C° 0 mm 2 m/S 754 mmHg 60%
    19:00 +27°C° 0 mm 1 m/S 754 mmHg 65%
    20:00 +26°C° 0 mm 1 m/S 754 mmHg 66%
    21:00 +25°C° 0 mm 1 m/S 754 mmHg 68%
    22:00 +22°C° 0 mm 0 m/S 755 mmHg 69%
    23:00 +23°C° 0 mm 1 m/S 755 mmHg 69%

    22 Juli, Montag

    Zeit Temperatur Niederschläge Wind Luftdruck Luftfeuchtigkeit
    00:00 +23°C° 0 mm 1 m/S 755 mmHg 70%
    01:00 +23°C° 0 mm 1 m/S 755 mmHg 70%
    02:00 +23°C° 0 mm 1 m/S 755 mmHg 71%
    03:00 +22°C° 0 mm 1 m/S 755 mmHg 72%
    04:00 +21°C° 0 mm 2 m/S 755 mmHg 74%
    05:00 +23°C° 0 mm 2 m/S 755 mmHg 73%
    06:00 +24°C° 0 mm 2 m/S 756 mmHg 71%
    07:00 +25°C° 0 mm 2 m/S 756 mmHg 70%
    08:00 +27°C° 0 mm 3 m/S 756 mmHg 66%
    09:00 +28°C° 0 mm 3 m/S 756 mmHg 62%
    10:00 +30°C° 0 mm 4 m/S 756 mmHg 57%
    11:00 +30°C° 0 mm 3 m/S 756 mmHg 53%
    12:00 +31°C° 0 mm 3 m/S 756 mmHg 48%
    13:00 +33°C° 0 mm 3 m/S 755 mmHg 43%
    14:00 +33°C° 0 mm 3 m/S 755 mmHg 43%
    15:00 +33°C° 0 mm 3 m/S 755 mmHg 44%
    16:00 +33°C° 0 mm 4 m/S 754 mmHg 44%
    17:00 +30°C° 0 mm 3 m/S 754 mmHg 50%
    18:00 +28°C° 0 mm 2 m/S 754 mmHg 55%
    19:00 +26°C° 0 mm 2 m/S 754 mmHg 60%
    20:00 +25°C° 0 mm 2 m/S 754 mmHg 61%
    21:00 +24°C° 0 mm 2 m/S 755 mmHg 61%
    22:00 +23°C° 0 mm 2 m/S 755 mmHg 62%
    23:00 +23°C° 0 mm 2 m/S 755 mmHg 65%
    Mehr zeigen